Location: Newark
(40.8181°N, 73.9275°W)
Time: 10:41:17
(UTC+00:00)

N. Korean satellite - Visible Passes

Search period start: 21 November 2019 00:00
Search period end: 01 December 2019 00:00
Orbit: 456 x 506 km, 97.2° (Epoch: 20 November)

Date Brightness Start Highest point End Pass type
(mag) Time Alt. Az. Time Alt. Az. Time Alt. Az.
21 Nov 9.4 10:03:19 10° NE 10:06:10 21° E 10:08:58 10° SE visible
21 Nov 7.1 22:10:41 10° S 22:14:17 66° W 22:17:59 10° NNW visible
22 Nov 10.3 09:40:07 10° E 09:40:33 10° E 09:40:59 10° E visible
22 Nov 6.8 11:10:40 10° N 11:14:13 48° WNW 11:17:43 10° SSW visible
23 Nov 6.8 10:45:12 10° NNE 10:48:53 76° ESE 10:52:30 10° S visible
23 Nov 9.7 22:54:23 10° SW 22:57:02 19° W 22:59:43 10° NW visible
24 Nov 8.4 10:20:04 10° NNE 10:23:26 34° E 10:26:44 10° SSE visible
24 Nov 8.3 22:28:04 10° SSW 22:31:30 38° W 22:35:00 10° NNW visible
25 Nov 9.7 09:55:28 10° NE 09:57:53 17° E 10:00:15 10° SE visible
25 Nov 6.7 22:02:24 10° SSE 22:06:04 86° WSW 22:09:48 10° NNW visible
26 Nov 6.6 11:02:24 10° N 11:06:01 62° WNW 11:09:34 10° SSW visible
26 Nov 10.2 23:12:58 10° WSW 23:14:21 12° W 23:15:43 10° WNW visible
27 Nov 7.2 10:37:02 10° NNE 10:40:38 58° E 10:44:09 10° S visible
27 Nov 9.3 22:45:45 10° SSW 22:48:44 23° W 22:51:47 10° NW visible
28 Nov 8.9 10:12:01 10° NE 10:15:08 26° E 10:18:12 10° SSE visible
28 Nov 7.7 22:19:39 10° S 22:23:14 49° W 22:26:52 10° NNW visible
29 Nov 10.0 09:47:47 10° ENE 09:49:32 13° E 09:51:18 10° ESE visible
29 Nov 7.1 11:19:44 10° N 11:23:06 36° WNW 11:26:23 10° SW visible
29 Nov 6.6 21:54:09 10° SSE 21:57:49 75° ENE 22:01:33 10° N visible
30 Nov 6.5 10:54:07 10° N 10:57:46 80° WNW 11:01:19 10° SSW visible
30 Nov 9.9 23:03:51 10° SW 23:05:59 15° W 23:08:09 10° WNW visible
